PROFILE

 METAR AND TAF INFORMATION
ADDS - METARS form results

(0554 UTC 22 September 2019)
http://aviationweather.gov/metar/data/
 
MHTG 220505Z 18004KT 6000 2000S -RA FEW008 SCT026 BKN080 19/18 Q1021 A3015 BECMG 5000 -TSRA
MHTG 220500Z 34004KT 7000 FEW008 SCT026 BKN080 20/19 Q1021 A3015 NOSIG
TAF MHTG 220425Z 2206/2306 00000KT 8000 VCSH FEW008 BKN024 TX28/2220Z TN18/2212Z BECMG 2216/2218 18005KT 9999 NSW BKN028 TEMPO 2220/2302 5000 TSSHRA SCT028CB SCT032TCU SCT080 BECMG 2302/2306 00000KT 7000 -TSRA 

 AIRPORT MAP

 RUNWAY INFORMATION
Runway 02 Runway length 6112 ft Runway width 148 ft
Runway elevation 3337 ft Runway displaced threshold 670 ft Runway heading 19
Runway 20 Runway length 6112 ft Runway width 148 ft
Runway elevation 3268 ft Runway displaced threshold 0 ft Runway heading 199

 AIRPORT FREQUENCIES
Type APP Name TONCONTIN Frequency 119.1 MHZ
Type ATIS Name ATIS Frequency 112.3 MHZ
Type GND Name GND Frequency 121.9 MHZ
Type RDO Name TEGUCIGALP Frequency 126.7 MHZ
Type TWR Name TWR Frequency 118.7 MHZ

 AIRPORT NEAR NAVIGATION AIDS
Type NDB Name Picacho Frequency 334 KHZ
Type VOR-DME Name Toncontin Frequency 112300 KHZ
Type NDB Name Toncontin Frequency 405 KHZ